Regional Weather Roundup
Issued by NWS

Current Version | Previous Version | Graphics & Text | Print | Product List | Glossary On
Versions: 1 2 3 4 5 6 7 8 9 10 11 12 13 14 15 16 17 18 19 20 21 22 23 24 25 26 27 28 29 30 31 32 33 34 35 36 37 38 39 40 41 42 43 44 45 46 47 48 49 50
443
ASUS43 KLMK 190710
RWRKY
KENTUCKY REGIONAL WEATHER ROUNDUP
NATIONAL WEATHER SERVICE LOUISVILLE KY
300 AM EDT MON APR 19 2021

NOTE "FAIR" INDICATES FEW OR NO CLOUDS BELOW 12,000 FEET
WITH NO SIGNIFICANT WEATHER AND/OR OBSTRUCTIONS TO VISIBILITY.

KYZ001>023-026-027-061>063-070>075-190800-
WESTERN AND SOUTH CENTRAL KENTUCKY

CITY           SKY/WX    TMP DP  RH WIND       PRES   REMARKS
PADUCAH        PTCLDY    47  44  90 SW6       29.96F
HENDERSON      CLOUDY    43  42  97 SW5       29.94F
OWENSBORO      PTCLDY    45  44  97 CALM      29.94F
HOPKINSVILLE   MOCLDY    46  46 100 CALM      29.94S
BOWLING GREEN  FOG       48  44  86 CALM      29.93F VSB 1/4
GLASGOW        LGT RAIN  49  48  98 CALM      29.93F
$$

KYZ024-025-028>034-038-045-046-053-190800-
NORTH CENTRAL KENTUCKY

CITY           SKY/WX    TMP DP  RH WIND       PRES   REMARKS
LOUISVILLE/SDF PTCLDY    51  42  71 W3        29.91F
LOUISVILLE/LOU MOCLDY    50  40  68 W5        29.91F
FORT KNOX      CLOUDY    46  46  99 SW5       29.92S
$$

KYZ035>037-039>044-047>052-055>060-089>105-190800-
NORTHEAST KENTUCKY

CITY           SKY/WX    TMP DP  RH WIND       PRES   REMARKS
LEXINGTON      PTCLDY    47  37  68 NW3       29.90F
COVINGTON      MOCLDY    50  37  61 CALM      29.89F
FRANKFORT      CLOUDY    47  39  74 CALM      29.89F
$$

KYZ054-064>069-076>088-106>120-190800-
SOUTHEAST KENTUCKY

CITY           SKY/WX    TMP DP  RH WIND       PRES   REMARKS
JACKSON        MOCLDY    54  31  41 CALM      29.88F
LONDON         CLOUDY    50  39  66 VRB3      29.89F
SOMERSET       CLOUDY    48  37  66 W6        29.93S
MIDDLESBORO    CLOUDY    50  45  84 CALM      29.91F
MONTICELLO     LGT RAIN  49  47  93 N8G17     29.95F
$$





USA.gov is the U.S. government's official web portal to all federal, state and local government web resources and services.